This demonstration page uses our WeatherBlox Daily Observations layout. Learn more.

Left ArrowRight Arrow

41.12389, -100.76542

Hourly Observations for July 7, 2015

Temp ( °F °C ) Dew Point ( °F °C ) Humidity (%) Winds ( mph kmh ) Pressure ( in mb ) Visibility ( mi km ) Precip ( " mm )
12:53 am 00:53 Clear 57 13.9 53 11.7 87 87 NNE 6 9 30.16 1021 10 16 0.00 0.00
1:53 am 01:53 Clear 57 13.9 52 11.1 83 83 NE 6 9 30.16 1021 10 16 0.00 0.00
2:53 am 02:53 Clear 54 12.2 51 10.6 90 90 ENE 5 7 30.16 1021 10 16 0.00 0.00
3:53 am 03:53 Clear 54 12.2 52 11.1 93 93 Calm 30.16 1022 10 16 0.00 0.00
4:53 am 04:53 Clear 53 11.7 51 10.6 93 93 Calm 30.15 1021 8 13 0.00 0.00
5:53 am 05:53 Clear 51 10.6 49 9.4 92 92 Calm 30.14 1021 7 11 0.00 0.00
6:53 am 06:53 Sunny with Mist and Fog 51 10.6 49 9.4 92 92 Calm 30.16 1021 6 10 0.00 0.00
7:53 am 07:53 Sunny 56 13.3 52 11.1 87 87 Calm 30.17 1022 8 13 0.00 0.00
8:53 am 08:53 Sunny 61 16.1 54 12.2 78 78 ESE 7 11 30.18 1022 10 16 0.00 0.00
9:53 am 09:53 Sunny 65 18.3 54 12.2 68 68 VRB 3 6 30.19 1022 10 16 0.00 0.00
10:53 am 10:53 Sunny 69 20.6 51 10.6 53 53 undefined N/A 30.17 1022 10 16 0.00 0.00
11:53 am 11:53 Mostly Sunny 71 21.7 51 10.6 49 49 E 10 17 30.15 1021 10 16 0.00 0.00
12:53 pm 12:53 Sunny 72 22.2 49 9.4 44 44 ESE 9 15 30.13 1020 10 16 0.00 0.00
1:53 pm 13:53 Sunny 74 23.3 49 9.4 41 41 undefined N/A 30.11 1020 10 16 0.00 0.00
2:53 pm 14:53 Mostly Sunny 75 23.9 48 8.9 39 39 undefined N/A 30.09 1019 10 16 0.00 0.00
3:53 pm 15:53 Partly Cloudy 77 25 51 10.6 40 40 SSE 9 15 30.08 1019 10 16 0.00 0.00
4:53 pm 16:53 Cloudy 73 22.8 52 11.1 48 48 ESE 10 17 30.09 1019 10 16 0.00 0.00
5:53 pm 17:53 Cloudy 73 22.8 51 10.6 46 46 ESE 8 13 30.07 1018 10 16 0.00 0.00
6:53 pm 18:53 Cloudy 73 22.8 52 11.1 48 48 SE 7 11 30.07 1018 10 16 0.00 0.00
7:53 pm 19:53 Cloudy 71 21.7 53 11.7 53 53 ESE 7 11 30.05 1018 10 16 0.00 0.00
8:53 pm 20:53 Mostly Sunny 68 20 53 11.7 59 59 SE 6 9 30.04 1017 10 16 0.00 0.00
9:53 pm 21:53 Cloudy 65 18.3 54 12.2 68 68 ESE 6 9 30.05 1018 10 16 0.00 0.00
10:53 pm 22:53 Cloudy 65 18.3 52 11.1 63 63 SSE 7 11 30.06 1018 10 16 0.00 0.00
11:53 pm 23:53 Mostly Cloudy 62 16.7 54 12.2 75 75 ESE 8 13 30.04 1017 10 16 0.00 0.00

Powered by AerisWeather